Hourly Data Report for November 06, 2019

All times are specified in Local Standard Time (LST). Add 1 hour to adjust for Daylight Saving Time where and when it is observed.

SATURNA ISLAND CS
BRITISH COLUMBIA
Current Station Operator: ECCC - MSC

48°47'02.067" N
123°02'41.082" W
24.40 m
1017101
71473
WEZ

Download Data

Hourly Data (November 2019)
Hourly Data Report for November 6, 2019
TIME Temp Definition
°C
Dew Point Definition
°C
Rel Hum Definition
%
Wind Dir Definition
10's deg

Wind Spd Definition
km/h
Visibility Definition
km
Stn Press Definition
kPa
Hmdx Definition


Wind Chill Definition


Weather Definition


00:00 8.2 7.4 95 30 3   102.07     LegendNANA
01:00 8.2 7.3 94 32 5   102.07     LegendNANA
02:00 8.2 7.0 93 32 8   102.08     LegendNANA
03:00 8.0 7.1 94 30 6   102.10     LegendNANA
04:00 8.1 7.1 94 32 8   102.11     LegendNANA
05:00 8.2 7.1 93 32 11   102.14     LegendNANA
06:00 8.2 6.8 91 32 13   102.16     LegendNANA
07:00 8.2 6.9 92 31 11   102.18     LegendNANA
08:00 8.8 6.9 88 32 11   102.25     LegendNANA
09:00 9.2 6.7 84 32 10   102.31     LegendNANA
10:00 9.3 6.9 85 31 6   102.31     LegendNANA
11:00 9.8 6.7 81 30 4   102.30     LegendNANA
12:00 10.2 6.9 80 32 8   102.22     LegendNANA
13:00 10.1 6.6 79 27 6   102.22     LegendNANA
14:00 9.5 6.9 84 32 8   102.18     LegendNANA
15:00 9.3 7.2 87 27 5   102.19     LegendNANA
16:00 8.7 7.4 92 24 4   102.20     LegendNANA
17:00 8.5 7.6 94 31 4   102.19     LegendNANA
18:00 8.5 7.6 94 29 5   102.17     LegendNANA
19:00 8.5 7.6 94 29 5   102.16     LegendNANA
20:00 8.4 7.5 94 28 4   102.14     LegendNANA
21:00 8.4 7.4 94 30 5   102.16     LegendNANA
22:00 8.4 7.4 94 30 4   102.17     LegendNANA
23:00 8.3 7.4 95 28 6   102.16     LegendNANA

Notes on Data Quality.

Legend

  • E = Estimated
  • M = Missing
  • NA = Not Available
Date modified: